STARLINK-33723 (63593 NORAD) Tracking and Keplerian Element Data

This shows tracking and keplerian element data for the satellite.

Feedback or suggestion? Click here.




ElementValue
Catalog63593
NameSTARLINK-33723
Epoch Orbit3967
Epoch Day354.18906882
Epoch Year2025
RAAN50.5098
Inclination42.997
Eccentricity8.72E-05
Argument of Perigee271.9233
Mean Anonmoly88.1518
Mean Motion15.27585572
Decay Rate0.00021374
L11 63593U 25076AA 25354.18906882 .00021374 00000+0 78385-3 0 9997
L22 63593 42.9970 50.5098 0000872 271.9233 88.1518 15.27585572 39673



Live tracking and technical data element details for STARLINK-33723 (NORAD 63593). STARLINK-33723 can be tracked NOW for your location showing map with azimuth and elevation plus other details from your city location.







IsCatalogInMostPopularTable: catalog: 63593, numindb: 2
Update: records affected: 1



GetName: 63593 STARLINK-33723

Hit Count: updated at: Sat, 07 Feb 2026 08:07:19 GMT